Weather in Serra

Brazil     20°08′04″S   40°18′04″W
temp.,
°C
wind,
m/s
gust,
m/s
humid.,
%
clouds,
%
prec.,
mm/h
press.,
hPa
HPBL,
m
18 april, sun
sun1800:00+22nnw229177 0.0 1015119
03:00+21nw2291100 0.0 1013106
06:00+21nnw2389100 0.0 1014112
09:00+25n367499 0.0 1015443
12:00+29ne565899 0.0 1012897
15:00+28ne896429 0.0 1010887
18:00+26nne58790 0.3 1011402
21:00+24n46835 0.8 1013260
19 april, mon
mon1900:00+23n36840 0.0 1012249
03:00+23n47865 0.0 1011263
06:00+22nnw34855 0.0 1012123
09:00+27n35665 0.0 1013609
12:00+30nne575711 0.0 1011994
15:00+29ne786596 0.0 1008777
18:00+26ne347754 1.6 101086
21:00+24ssw678914 6.8 1012446
20 april, tue
tue2000:00+23sw349048 1.6 1012300
03:00+23sw339026 1.9 1011257
06:00+23ssw228774 0.1 1012264
09:00+25sw1179100 0.3 1013423
12:00+26sse4375100 0.1 1012678
15:00+25s4476100 0.9 1011532
18:00+24sse2378100 0.4 1012381
21:00+24ssw3580100 0.4 1014526
21 april, wed
wed2100:00+22sw3483100 0.0 1013312
03:00+22sw3483100 0.0 1012254
06:00+21sw2382100 0.0 1013192
09:00+24sw2271100 0.0 1015336
12:00+25s3461100 0.0 1014621
15:00+26s4563100 0.0 1012785
18:00+24ssw3473100 0.5 1014363
21:00+23sw458099 1.1 1016406
22 april, thu
thu2200:00+22sw34810 0.0 1015243
03:00+21wsw23810 0.0 1014186
06:00+21wsw22800 0.0 1015176
09:00+24ssw22650 0.0 1016476
12:00+25se436710 0.0 1015813
15:00+25se43660 0.1 1013623
18:00+24se12740 0.8 1015275
21:00+23sw22780 0.8 1016373